Location: Chabot Space and Science Center
(37.8191°N, 122.1819°W)
Time: 14:21:06
(UTC-08:00)

ISS - Pass Details

Date: 08 December 2021
Orbit: 413 x 422 km, 51.6° (Epoch: 20 January)

Event Time Altitude Azimuth Distance (km) Brightness Sun altitude
Rises 18:11:42 0° 301° (WNW) 2,380 0.7 -15.8°
Reaches altitude 10° 18:13:56 10° 292° (WNW) 1,509 -0.2 -16.2°
Maximum altitude 18:17:01 33° 227° (SW) 731 -2.0 -16.8°
Drops below altitude 10° 18:20:04 10° 161° (SSE) 1,493 -1.0 -17.4°
Enters shadow 18:21:39 - 153° (SSE) 2,103 -0.3 -17.7°
